timestamp,wind_dir_avg,wind_spd_avg,wind_spd_max_dir,wind_spd_gust,battery_voltage,lat,long
2021-04-26 00:04:01+00:00,201.0,5.99,205.0,6.82,12.97,47.59359,-54.27349
2021-04-26 00:14:01+00:00,210.0,6.97,212.0,7.62,12.57,47.59359,-54.27349
2021-04-26 00:24:01+00:00,214.0,7.86,217.0,8.64,12.57,47.59359,-54.27349
2021-04-26 00:34:01+00:00,214.0,7.29,213.0,8.0,12.57,47.59359,-54.27349
2021-04-26 00:44:01+00:00,213.0,6.66,214.0,7.42,12.57,47.59359,-54.27349
2021-04-26 00:54:01+00:00,211.0,6.37,215.0,7.59,12.57,47.59359,-54.27349
2021-04-26 01:04:01+00:00,211.0,5.66,208.0,6.3,12.57,47.59359,-54.27349
2021-04-26 01:14:01+00:00,211.0,6.1,213.0,6.85,12.49,47.59359,-54.27349
2021-04-26 01:24:01+00:00,220.0,6.7,219.0,7.17,12.49,47.59359,-54.27349
2021-04-26 01:34:01+00:00,213.0,6.8,216.0,7.95,12.49,47.59359,-54.27349
2021-04-26 01:44:01+00:00,230.0,6.44,227.0,7.35,12.49,47.59359,-54.27349
2021-04-26 01:54:01+00:00,223.0,5.49,226.0,6.26,12.49,47.59359,-54.27349
2021-04-26 02:04:01+00:00,211.0,4.67,214.0,5.12,12.49,47.59359,-54.27349
2021-04-26 02:14:00+00:00,223.0,5.09,223.0,5.7,12.49,47.59359,-54.27349
2021-04-26 02:24:00+00:00,225.0,5.88,228.0,6.49,12.49,47.59359,-54.27349
2021-04-26 02:34:00+00:00,230.0,4.77,239.0,5.89,12.49,47.59359,-54.27349
2021-04-26 02:44:00+00:00,223.0,4.05,229.0,5.06,12.49,47.59359,-54.27349
2021-04-26 02:54:00+00:00,115.0,1.48,116.0,1.97,12.49,47.59359,-54.27349
2021-04-26 03:04:00+00:00,154.0,1.16,156.0,1.5,12.49,47.59359,-54.27349
2021-04-26 03:14:01+00:00,166.0,1.36,177.0,1.72,12.49,47.59359,-54.27349
2021-04-26 03:24:01+00:00,218.0,2.43,230.0,3.32,12.49,47.59359,-54.27349
2021-04-26 03:34:01+00:00,219.0,3.77,219.0,4.55,12.49,47.59359,-54.27349
2021-04-26 03:44:01+00:00,223.0,3.12,233.0,3.74,12.49,47.59359,-54.27349
2021-04-26 03:54:01+00:00,216.0,2.94,216.0,3.44,12.49,47.59359,-54.27349
2021-04-26 04:04:01+00:00,209.0,2.39,203.0,2.98,12.49,47.59359,-54.27349
2021-04-26 04:14:00+00:00,216.0,2.55,218.0,3.43,12.41,47.59359,-54.27349
2021-04-26 04:24:00+00:00,208.0,1.73,209.0,1.95,12.41,47.59359,-54.27349
2021-04-26 04:34:00+00:00,196.0,1.68,189.0,2.02,12.41,47.59359,-54.27349
2021-04-26 04:44:00+00:00,181.0,2.44,186.0,2.57,12.41,47.59359,-54.27349
2021-04-26 04:54:00+00:00,166.0,2.07,167.0,2.2,12.41,47.59359,-54.27349
2021-04-26 05:04:00+00:00,168.0,2.22,169.0,2.43,12.41,47.59359,-54.27349
2021-04-26 05:14:01+00:00,169.0,2.04,172.0,2.27,12.41,47.59359,-54.27349
2021-04-26 05:24:01+00:00,177.0,1.93,180.0,2.13,12.41,47.59359,-54.27349
2021-04-26 05:34:01+00:00,184.0,1.26,183.0,1.51,12.41,47.59359,-54.27349
2021-04-26 05:44:01+00:00,197.0,1.16,203.0,1.71,12.41,47.59359,-54.27349
2021-04-26 05:54:01+00:00,159.0,0.83,159.0,1.16,12.41,47.59359,-54.27349
2021-04-26 06:04:01+00:00,151.0,0.52,163.0,0.83,12.41,47.59359,-54.27349
2021-04-26 06:14:00+00:00,98.0,0.58,82.0,0.82,12.41,47.59359,-54.27349
2021-04-26 06:24:00+00:00,65.0,0.76,58.0,1.03,12.41,47.59359,-54.27349
2021-04-26 06:34:00+00:00,63.0,0.94,61.0,1.09,12.41,47.59359,-54.27349
2021-04-26 06:44:00+00:00,56.0,1.91,61.0,2.16,12.41,47.59359,-54.27349
2021-04-26 06:54:00+00:00,46.0,1.81,48.0,2.06,12.41,47.59359,-54.27349
2021-04-26 07:04:00+00:00,22.0,1.83,21.0,2.0,12.41,47.59359,-54.27349
2021-04-26 07:14:01+00:00,25.0,1.41,25.0,1.58,12.33,47.59359,-54.27349
2021-04-26 07:24:01+00:00,32.0,2.36,33.0,2.48,12.33,47.59359,-54.27349
2021-04-26 07:34:01+00:00,48.0,2.76,45.0,3.18,12.33,47.59359,-54.27349
2021-04-26 07:44:01+00:00,47.0,3.18,48.0,3.45,12.33,47.59359,-54.27349
2021-04-26 07:54:01+00:00,50.0,2.93,52.0,3.08,12.33,47.59359,-54.27349
2021-04-26 08:04:01+00:00,47.0,2.06,47.0,2.44,12.33,47.59359,-54.27349
2021-04-26 08:14:00+00:00,43.0,2.89,45.0,3.09,12.33,47.59359,-54.27349
2021-04-26 08:24:00+00:00,70.0,2.97,69.0,3.33,12.33,47.59359,-54.27349
2021-04-26 08:34:00+00:00,60.0,2.28,63.0,2.52,12.33,47.59359,-54.27349
2021-04-26 08:44:00+00:00,47.0,3.81,46.0,4.05,12.33,47.59359,-54.27349
2021-04-26 08:54:00+00:00,47.0,3.18,50.0,3.39,12.33,47.59359,-54.27349
2021-04-26 09:04:00+00:00,54.0,3.73,52.0,4.08,12.33,47.59359,-54.27349
2021-04-26 09:14:01+00:00,51.0,4.01,51.0,4.5,12.33,47.59359,-54.27349
2021-04-26 09:24:01+00:00,58.0,4.35,60.0,4.75,12.33,47.59359,-54.27349
2021-04-26 09:34:01+00:00,57.0,3.67,58.0,4.44,12.33,47.59359,-54.27349
2021-04-26 09:44:01+00:00,44.0,3.81,46.0,4.12,12.33,47.59359,-54.27349
2021-04-26 09:54:01+00:00,44.0,4.01,45.0,4.28,12.33,47.59359,-54.27349
2021-04-26 10:04:01+00:00,49.0,4.31,48.0,4.66,12.33,47.59359,-54.27349
2021-04-26 10:14:01+00:00,38.0,4.11,41.0,4.67,12.81,47.59359,-54.27349
2021-04-26 10:24:01+00:00,37.0,4.4,39.0,4.82,12.81,47.59359,-54.27349
2021-04-26 10:34:01+00:00,32.0,4.5,33.0,4.78,12.81,47.59359,-54.27349
2021-04-26 10:44:01+00:00,30.0,4.13,25.0,4.8,12.81,47.59359,-54.27349
2021-04-26 10:54:01+00:00,34.0,3.96,32.0,4.24,12.81,47.59359,-54.27349
2021-04-26 11:04:01+00:00,32.0,3.99,36.0,4.94,12.81,47.59359,-54.27349
2021-04-26 11:14:01+00:00,54.0,2.32,60.0,2.86,13.76,47.59359,-54.27349
2021-04-26 11:24:01+00:00,76.0,1.96,103.0,2.69,13.76,47.59359,-54.27349
2021-04-26 11:34:01+00:00,126.0,3.57,134.0,5.95,13.76,47.59359,-54.27349
2021-04-26 11:44:01+00:00,167.0,5.69,174.0,10.68,13.76,47.59359,-54.27349
2021-04-26 11:54:01+00:00,138.0,2.68,140.0,3.35,13.76,47.59359,-54.27349
2021-04-26 12:04:01+00:00,81.0,1.24,103.0,1.75,13.76,47.59359,-54.27349
2021-04-26 12:14:01+00:00,50.0,2.82,56.0,3.15,13.68,47.59359,-54.27349
2021-04-26 12:24:01+00:00,58.0,2.23,57.0,2.71,13.68,47.59359,-54.27349
2021-04-26 12:34:01+00:00,25.0,1.79,13.0,2.35,13.68,47.59359,-54.27349
2021-04-26 12:44:01+00:00,112.0,1.88,140.0,2.85,13.68,47.59359,-54.27349
2021-04-26 12:54:01+00:00,148.0,6.71,148.0,8.75,13.68,47.59359,-54.27349
2021-04-26 13:04:01+00:00,148.0,9.24,148.0,10.43,13.68,47.59359,-54.27349
2021-04-26 13:14:01+00:00,146.0,8.96,148.0,10.46,13.68,47.59359,-54.27349
2021-04-26 13:24:01+00:00,148.0,8.25,149.0,10.46,13.68,47.59359,-54.27349
2021-04-26 13:34:01+00:00,155.0,10.25,156.0,11.94,13.68,47.59359,-54.27349
2021-04-26 13:44:01+00:00,155.0,10.87,154.0,12.64,13.68,47.59359,-54.27349
2021-04-26 13:54:01+00:00,156.0,11.36,145.0,14.63,13.68,47.59359,-54.27349
2021-04-26 14:04:01+00:00,161.0,9.98,162.0,11.21,13.68,47.59359,-54.27349
2021-04-26 14:14:01+00:00,160.0,9.98,162.0,10.64,13.84,47.59359,-54.27349
2021-04-26 14:24:01+00:00,160.0,9.12,160.0,10.47,13.84,47.59359,-54.27349
2021-04-26 14:34:01+00:00,159.0,10.33,160.0,11.75,13.84,47.59359,-54.27349
2021-04-26 14:44:01+00:00,163.0,9.5,167.0,12.05,13.84,47.59359,-54.27349
2021-04-26 14:54:01+00:00,159.0,10.34,162.0,11.22,13.84,47.59359,-54.27349
2021-04-26 15:04:01+00:00,162.0,11.13,163.0,12.55,13.84,47.59359,-54.27349
2021-04-26 15:14:01+00:00,157.0,11.0,146.0,12.75,13.84,47.59359,-54.27349
2021-04-26 15:24:01+00:00,157.0,11.14,154.0,13.17,13.84,47.59359,-54.27349
2021-04-26 15:34:01+00:00,151.0,10.42,153.0,11.5,13.84,47.59359,-54.27349
2021-04-26 15:44:01+00:00,150.0,9.25,148.0,10.63,13.84,47.59359,-54.27349
2021-04-26 15:54:01+00:00,143.0,9.04,144.0,10.04,13.84,47.59359,-54.27349
2021-04-26 16:04:01+00:00,146.0,9.82,148.0,10.91,13.84,47.59359,-54.27349
2021-04-26 16:14:01+00:00,141.0,8.64,145.0,9.96,14.32,47.59359,-54.27349
2021-04-26 16:24:01+00:00,142.0,11.19,143.0,13.25,14.32,47.59359,-54.27349
2021-04-26 16:34:01+00:00,141.0,10.53,143.0,12.2,14.32,47.59359,-54.27349
2021-04-26 16:44:01+00:00,142.0,12.12,148.0,13.63,14.32,47.59359,-54.27349
2021-04-26 16:54:01+00:00,141.0,10.48,144.0,11.53,14.32,47.59359,-54.27349
2021-04-26 17:04:01+00:00,143.0,11.08,142.0,12.85,14.32,47.59359,-54.27349
2021-04-26 17:14:01+00:00,142.0,10.24,144.0,11.16,13.76,47.59359,-54.27349
2021-04-26 17:24:01+00:00,143.0,10.28,148.0,11.38,13.76,47.59359,-54.27349
2021-04-26 17:34:01+00:00,143.0,10.94,142.0,12.64,13.76,47.59359,-54.27349
2021-04-26 17:44:01+00:00,143.0,10.41,143.0,11.31,13.76,47.59359,-54.27349
2021-04-26 17:54:01+00:00,142.0,11.28,139.0,13.92,13.76,47.59359,-54.27349
2021-04-26 18:04:01+00:00,141.0,8.42,144.0,10.34,13.76,47.59359,-54.27349
2021-04-26 18:14:01+00:00,142.0,8.15,147.0,9.29,13.76,47.59359,-54.27349
2021-04-26 18:24:01+00:00,139.0,9.38,143.0,11.37,13.76,47.59359,-54.27349
2021-04-26 18:34:01+00:00,143.0,9.79,145.0,11.62,13.76,47.59359,-54.27349
2021-04-26 18:44:01+00:00,142.0,7.44,144.0,8.84,13.76,47.59359,-54.27349
2021-04-26 18:54:01+00:00,148.0,7.58,147.0,8.38,13.76,47.59359,-54.27349
2021-04-26 19:04:01+00:00,146.0,9.61,153.0,13.43,13.76,47.59359,-54.27349
2021-04-26 19:14:01+00:00,142.0,7.62,142.0,8.94,13.84,47.59359,-54.27349
2021-04-26 19:24:01+00:00,134.0,7.33,136.0,9.01,13.84,47.59359,-54.27349
2021-04-26 19:34:01+00:00,134.0,10.4,130.0,12.65,13.84,47.59359,-54.27349
2021-04-26 19:44:01+00:00,132.0,9.87,121.0,12.92,13.84,47.59359,-54.27349
2021-04-26 19:54:01+00:00,131.0,9.54,127.0,11.83,13.84,47.59359,-54.27349
2021-04-26 20:04:01+00:00,135.0,8.71,144.0,10.7,13.84,47.59359,-54.27349
2021-04-26 20:14:01+00:00,133.0,8.8,134.0,11.37,13.6,47.59359,-54.27349
2021-04-26 20:24:01+00:00,132.0,7.57,134.0,8.88,13.6,47.59359,-54.27349
2021-04-26 20:34:01+00:00,134.0,9.48,139.0,11.12,13.6,47.59359,-54.27349
2021-04-26 20:44:01+00:00,128.0,8.54,129.0,10.46,13.6,47.59359,-54.27349
2021-04-26 20:54:01+00:00,125.0,8.81,122.0,10.73,13.6,47.59359,-54.27349
2021-04-26 21:04:01+00:00,131.0,7.79,137.0,9.87,13.6,47.59359,-54.27349
2021-04-26 21:14:01+00:00,129.0,8.15,148.0,10.88,13.44,47.59359,-54.27349
2021-04-26 21:24:01+00:00,131.0,8.24,125.0,10.73,13.44,47.59359,-54.27349
2021-04-26 21:34:01+00:00,128.0,7.6,126.0,9.24,13.44,47.59359,-54.27349
2021-04-26 21:44:01+00:00,128.0,7.72,123.0,9.45,13.44,47.59359,-54.27349
2021-04-26 21:54:01+00:00,130.0,7.77,128.0,9.14,13.44,47.59359,-54.27349
2021-04-26 22:04:01+00:00,123.0,9.34,129.0,10.83,13.44,47.59359,-54.27349
2021-04-26 22:14:01+00:00,125.0,8.68,124.0,11.56,12.97,47.59359,-54.27349
2021-04-26 22:24:01+00:00,127.0,8.49,127.0,11.04,12.97,47.59359,-54.27349
2021-04-26 22:34:01+00:00,128.0,7.66,127.0,9.08,12.97,47.59359,-54.27349
2021-04-26 22:44:01+00:00,126.0,8.87,132.0,10.56,12.97,47.59359,-54.27349
2021-04-26 22:54:01+00:00,126.0,9.43,127.0,10.93,12.97,47.59359,-54.27349
2021-04-26 23:04:01+00:00,123.0,8.79,127.0,11.66,12.97,47.59359,-54.27349
2021-04-26 23:14:01+00:00,123.0,11.32,121.0,13.81,12.57,47.59359,-54.27349
2021-04-26 23:24:01+00:00,124.0,11.96,123.0,14.72,12.57,47.59359,-54.27349
2021-04-26 23:34:01+00:00,127.0,10.47,130.0,12.72,12.57,47.59359,-54.27349
2021-04-26 23:44:01+00:00,126.0,10.64,127.0,12.44,12.57,47.59359,-54.27349
2021-04-26 23:54:01+00:00,125.0,10.15,124.0,11.8,12.57,47.59359,-54.27349
